Starlink 11089

operational
NORAD ID: 59426 Int'l Des: 2024-065 Owner: SPXS Country: US Constellation: starlink
LEOCIRCULAR

About Starlink 11089

Description loading...

Live Position

Loading 3D Globe...

Upcoming Passes

Altitude History

Altitude vs Time

uPlot chart will show altitude changes over time

Two-Line Element Set

1 59426U 24065F 25258.42819148 .00000735 00000-0 10908-4 0 9999
2 59426 53.1584 238.0718 0000570 71.6990 288.4090 15.69727104 83999
Epoch: Sep 15, 2025 • Age: 20 hours

Current Status

Altitude 360.4 km
Velocity 7.70 km/s
Sub-Earth Point 24.01°N, 62.63°W
Launch Date Apr 7, 2024
Age 1.4 years
Type internet

Technical Details

Classification Payload
Mass 960.00 kg
Dry Mass 910.00 kg
Total Mass 960.00 kg
Length 0.30 m
Diameter 4.10 m
Span 29.00 m
Shape Box + pan
Manufacturer SPXS
Bus Type Starlink V2MD
Phase Status In Orbit
Owner/State SPXS/US

Large Constellations

Loading constellations...